Flag for U.S.A. Weather past 2 weeks in Fayetteville, North Carolina, U.S.A.

Now
68 °F

Clear.


Feels Like: 68 °F
Forecast: 65 / 72 °F
Wind: No wind

Location: Fayetteville Regional Airport

Current Time: Apr 18, 2015 at 10:17:24 PM

Latest Report: Apr 18, 2015 at 8:53 PM


Visibility: 10 mi

Pressure: 29.94 "Hg

Humidity: 93%

Dew point: 66 °F

Location of FayettevilleLocation

Historic Weather in Fayetteville — Graph

°F

Fayetteville temperature yesterday

Maximum temperature yesterday: 78 °F (at 4:53 PM)
Minimum temperature yesterday: 60 °F (at 12:53 AM)
Average temperature yesterday: 67 °F

Past Weeks' High & Low Weather Summary

 TemperatureHumidityPressure
High86 °F (Apr 9, 3:53 PM)100% (Apr 14, 7:53 AM)30.36 "Hg (Apr 14, 7:53 AM)
Low37 °F (Apr 5, 5:53 AM)14% (Apr 4, 6:53 PM)29.82 "Hg (Apr 4, 3:53 AM)
Average67 °F69%30.12 "Hg
* Reported Apr 3 8:53 PM — Apr 18 8:53 PM, Fayetteville, Weather by CustomWeather, © 2015

Note: Actual official high and low records may vary slightly from our data, if they occured in-between our weather recording intervals... More about our weather records

Advertising

Fayetteville weather history for previous 24 hours

 ConditionsComfort  
Time TempWeatherWind HumidityBarometerVisibility
8:53 PM
Sat, Apr 18
68 °FClear.No wind93%29.94 "Hg10 mi
7:53 PM70 °FPartly sunny.No wind84%29.93 "Hg10 mi
6:53 PM72 °FMore clouds than sun.3 mph76%29.92 "Hg10 mi
5:53 PM73 °FOvercast.5 mph69%29.93 "Hg10 mi
4:53 PM73 °FOvercast.7 mph69%29.92 "Hg10 mi
3:53 PM73 °FScattered clouds.8 mph76%29.93 "Hg10 mi
2:53 PM74 °FOvercast.8 mph76%29.95 "Hg10 mi
1:53 PM71 °FLight rain. More clouds than sun.6 mph84%29.97 "Hg10 mi
1:02 PM72 °FLight rain. Mostly cloudy.7 mph78%29.99 "Hg7 mi
12:53 PM74 °FLight rain. Cloudy.3 mph71%29.97 "Hg9 mi
11:53 AM75 °FBroken clouds.No wind69%29.98 "Hg10 mi
10:53 AM73 °FOvercast.3 mph71%29.98 "Hg10 mi
9:53 AM70 °FOvercast.No wind81%29.98 "Hg10 mi
8:53 AM68 °FOvercast.3 mph90%29.97 "Hg8 mi
7:53 AM66 °FFog.3 mph93%29.97 "Hg6 mi
6:53 AM65 °FLight rain. Fog.3 mph97%29.97 "Hg6 mi
5:53 AM65 °FPassing clouds.3 mph97%29.96 "Hg7 mi
4:53 AM64 °FPassing clouds.No wind97%29.94 "Hg7 mi
3:53 AM64 °FPassing clouds.3 mph97%29.94 "Hg7 mi
2:53 AM66 °FClear.No wind93%29.95 "Hg9 mi
1:53 AM66 °FClear.3 mph93%29.97 "Hg10 mi
12:53 AM68 °FClear.6 mph90%29.98 "Hg10 mi
11:53 PM
Fri, Apr 17
67 °FClear.5 mph93%29.99 "Hg10 mi
10:53 PM67 °FClear.7 mph93%29.99 "Hg10 mi
Weather by CustomWeather, © 2015

See weather overviewHow to use our weather pages